Kinston, NC

4:49 AM EST on December 07, 2016 (GMT -0500)
Kinston Regional Jetport / Stallings Field

Weather History for KISO - February, 2014

Change the Weather History Date:

Saturday, February 1, 2014

  Actual Average Record
Temperature  
Mean Temperature 39 °F -  
Max Temperature 55 °F 54 °F 82 °F (2002)
Min Temperature 23 °F 35 °F 12 °F (1981)
Degree Days  
Heating Degree Days 26    
Moisture  
Dew Point 30 °F    
Average Humidity 84    
Maximum Humidity 100    
Minimum Humidity 31    
Precipitation  
Precipitation 0.01 in - - ()
Sea Level Pressure  
Sea Level Pressure 30.19 in    
Wind  
Wind Speed 0 mph (NNE)    
Max Wind Speed 5 mph    
Max Gust Speed -    
Visibility 6 miles    
Events Fog , Rain    
Averages and records for this station are not official NWS values.
T = Trace of Precipitation, MM = Missing Value Source: NWS Daily Summary

Daily Weather History Graph

Daily Weather History Graph

Search for Another Location

Airport or City:

Trip Planner

Search our weather history database for the weather conditions in past years. The results will help you decide how hot, cold, wet, or windy it might be!

Date:

Astronomy

Feb. 01, 2014 Rise Set
Actual Time 7:09 AM EST 5:38 PM EST
Civil Twilight 6:43 AM EST 6:05 PM EST
Nautical Twilight 6:12 AM EST 6:35 PM EST
Astronomical Twilight 5:42 AM EST 7:05 PM EST
Moon 8:04 AM EST (2/1) 8:04 PM EST (2/1)
Length of Visible Light 11h 22m
Length of Day
10h 28m
Waxing Crescent, 5% of the Moon is Illuminated
Feb 1
Waxing Crescent
Feb 6
First Quarter
Feb 14
Full
Feb 22
Last Quarter
Mar 1
New

Hourly Weather History & Observations

Time (EST) Temp. Windchill Dew Point Humidity Pressure Visibility Wind Dir Wind Speed Gust Speed Precip Events Conditions
12:15 AM 26.1 °F - 19.9 °F 78% 30.23 in 10.0 mi Calm Calm - N/A   Clear
12:35 AM 24.6 °F - 21.7 °F 89% 30.23 in 10.0 mi Calm Calm - N/A   Clear
12:55 AM 25.0 °F - 22.3 °F 89% 30.23 in 10.0 mi Calm Calm - N/A   Clear
1:15 AM 25.7 °F - 21.2 °F 83% 30.23 in 10.0 mi Calm Calm - N/A   Clear
1:35 AM 25.9 °F - 21.7 °F 84% 30.22 in 10.0 mi Calm Calm - N/A   Clear
1:55 AM 25.3 °F - 21.7 °F 86% 30.23 in 10.0 mi Calm Calm - N/A   Clear
2:15 AM 25.3 °F - 21.4 °F 85% 30.22 in 10.0 mi Calm Calm - N/A   Clear
2:35 AM 24.8 °F - 21.2 °F 86% 30.22 in 10.0 mi Calm Calm - N/A   Clear
2:55 AM 24.6 °F - 20.3 °F 84% 30.22 in 10.0 mi Calm Calm - N/A   Clear
3:15 AM 25.0 °F - 21.2 °F 86% 30.22 in 10.0 mi Calm Calm - N/A   Clear
3:35 AM 23.5 °F - 20.1 °F 87% 30.22 in 10.0 mi Calm Calm - N/A   Clear
3:55 AM 24.3 °F - 20.3 °F 85% 30.22 in 10.0 mi Calm Calm - N/A   Clear
4:15 AM 23.4 °F - 20.3 °F 88% 30.22 in 10.0 mi Calm Calm - N/A   Clear
4:35 AM 23.2 °F - 19.8 °F 87% 30.22 in 10.0 mi Calm Calm - N/A   Clear
4:55 AM 24.1 °F - 19.2 °F 82% 30.22 in 10.0 mi Calm Calm - N/A   Clear
5:15 AM 23.9 °F - 19.8 °F 84% 30.23 in 10.0 mi Calm Calm - N/A   Clear
5:35 AM 23.7 °F - 19.9 °F 85% 30.23 in 10.0 mi Calm Calm - N/A   Clear
5:55 AM 23.5 °F - 20.1 °F 87% 30.24 in 10.0 mi Calm Calm - N/A   Clear
6:56 AM 23.0 °F - 19.4 °F 86% 30.25 in 10.0 mi Calm Calm - N/A   Clear
7:56 AM 26.6 °F - 23.0 °F 86% 30.26 in 10.0 mi Calm Calm - N/A   Clear
8:56 AM 35.6 °F - 26.6 °F 70% 30.28 in 10.0 mi Calm Calm - N/A   Clear
9:56 AM 44.6 °F 42.2 °F 23.0 °F 43% 30.26 in 10.0 mi NE 4.6 mph - N/A   Clear
10:56 AM 48.2 °F - 23.0 °F 37% 30.26 in 10.0 mi Calm Calm - N/A   Clear
11:56 AM 51.8 °F - 23.0 °F 33% 30.23 in 10.0 mi NE 4.6 mph - N/A   Scattered Clouds
12:56 PM 53.6 °F - 26.6 °F 35% 30.20 in 10.0 mi NE 4.6 mph - N/A   Mostly Cloudy
1:56 PM 55.4 °F - 24.8 °F 31% 30.17 in 10.0 mi East 3.5 mph - N/A   Mostly Cloudy
2:56 PM 48.2 °F - 37.4 °F 66% 30.20 in 4.0 mi WNW 3.5 mph - N/A Rain Light Rain
3:56 PM 42.8 °F 40.1 °F 41.0 °F 93% 30.16 in 3.0 mi North 4.6 mph - N/A Rain Rain
5:56 PM 42.8 °F 41.1 °F 42.8 °F 100% 30.13 in 2.0 mi NNE 3.5 mph - N/A Rain Rain
6:56 PM 42.8 °F 41.1 °F 42.8 °F 100% 30.14 in 2.0 mi NNW 3.5 mph - N/A Rain Rain
7:56 PM 42.8 °F - 41.0 °F 93% 30.15 in 1.0 mi Calm Calm - N/A   Overcast
8:15 PM 42.4 °F - 41.9 °F 98% 30.14 in 1.5 mi Calm Calm - N/A   Light Drizzle
8:35 PM 42.4 °F - 41.9 °F 98% 30.15 in 1.2 mi Calm Calm - N/A   Overcast
8:55 PM 42.4 °F - 41.9 °F 98% 30.14 in 1.2 mi Calm Calm - N/A   Overcast
8:56 PM 42.8 °F - 41.0 °F 93% 30.14 in 1.0 mi Calm Calm - N/A   Overcast
9:15 PM 42.3 °F - 41.9 °F 99% 30.14 in 1.0 mi Calm Calm - N/A   Overcast
9:35 PM 42.3 °F - 41.9 °F 99% 30.14 in 0.8 mi Calm Calm - N/A   Overcast
9:55 PM 42.1 °F - 41.9 °F 99% 30.13 in 0.8 mi Calm Calm - N/A   Overcast
10:15 PM 42.1 °F - 41.9 °F 99% 30.12 in 0.8 mi Calm Calm - N/A   Overcast
10:35 PM 41.9 °F - 41.5 °F 99% 30.13 in 0.5 mi Calm Calm - N/A Fog Fog
10:55 PM 41.9 °F - 41.5 °F 99% 30.12 in 0.5 mi Calm Calm - N/A Fog Fog
11:15 PM 41.9 °F - 41.5 °F 99% 30.12 in 0.5 mi Calm Calm - N/A Fog Fog
11:35 PM 41.9 °F - 41.7 °F 99% 30.12 in 0.5 mi Calm Calm - N/A Fog Fog
11:55 PM 41.9 °F - 41.5 °F 99% 30.12 in 0.5 mi Calm Calm - N/A Fog Fog